Location: La Chapelle
(48.3135°N, 1.3085°W)
Time: 02:18:46
(UTC+00:00)

Cosmos 1727 Rocket - Pass Details

Date: 03 March 2021
Orbit: 961 x 996 km, 82.9° (Epoch: 16 April)

Event Time Altitude Azimuth Distance (km) Brightness Sun altitude
Rises 20:26:44 0° 349° (N) 3,659 7.4 -26.0°
Reaches altitude 10° 20:29:15 10° 348° (NNW) 2,709 6.7 -26.4°
Maximum altitude 20:35:26 76° 264° (W) 997 4.0 -27.4°
Enters shadow 20:37:44 41° 188° (S) 1,373 4.6 -27.7°
